Content
SEND FEEDBACK

Daily
Averages
Monthly
Summary
Canada

VANCOUVER - CITY HALL, BRITISH COLUMBIA


Home > North America > Canada > British Columbia
Elevation: 283 feet     Latitude: 49 17N     Longitude: 123 07W

WEATHER
 
SELECT A DAY
Number of Records: 173,213;   Date Range: 4/23/95 - 11/22/14
 
SHARE

PRINT THIS DATA

[ ← Previous Day ]
WEATHER ALMANAC - FEBRUARY 3, 2013
[ Next Day → ]
[ °C ]   °F
Weather ElementAverageHighLow
Temperature39.5 °F41.7 °F (2:00 pm)36.3 °F (1:00 am)
Dewpoint37.9 °F40.1 °F (11:00 pm)35.4 °F (1:00 am)
Humidity93.7 %97 % (1:00 am)87 % (2:00 pm)
Barometer30.24 in30.29 in (10:00 am)30.17 in (11:00 pm)
Wind Speed2.4 mph3.5 mph (1:00 am)
Weather ElementAverage
Wind DirectionENE (78.9 °)

Weather ElementTotal
Precipitation0.14 in
Heating Degree Days26 (Base 65)
Averaged from 27 records on February 3, 2013
WEATHER CONDITIONS BREAKOUT
WIND DIRECTION BREAKOUT
WEATHER BY HOUR - FEBRUARY 3, 2013
[ °C ]   °F
Local TimeTemperatureDewpointHumidityBarometerVisibilityWind DirectionWind SpeedGust SpeedPrecipitationEventsConditions
1:00 AM36.3 °F35.4 °F97 %30.25 inEast (80°)3.5 mph
2:00 AM36.5 °F35.8 °F97 %30.25 inENE (70°)2.3 mph
3:00 AM37.4 °F36.7 °F97 %30.26 inENE (70°)2.3 mph
4:00 AM38.0 °F37.0 °F95 %30.26 inEast (90°)2.3 mph
4:00 AM37.8 °F37.0 °F97 %30.26 inEast (90°)2.3 mph
5:00 AM37.9 °F37.2 °F97 %30.27 inEast (90°)3.5 mph
6:00 AM38.5 °F37.4 °F96 %30.26 inEast (80°)2.3 mph
7:00 AM39.0 °F37.0 °F93 %30.26 inEast (80°)3.5 mph
8:00 AM39.2 °F37.0 °F92 %30.27 inNE (50°)1.2 mph
9:00 AM39.2 °F37.2 °F93 %30.27 inEast (100°)2.3 mph
10:00 AM39.0 °F37.0 °F90 %30.29 inEast (80°)3.5 mph
10:00 AM39.4 °F37.0 °F91 %30.29 inEast (80°)3.5 mph
11:00 AM39.9 °F37.2 °F90 %30.28 inEast (90°)2.3 mph
12:00 PM40.1 °F37.4 °F90 %30.28 inEast (100°)2.3 mph
1:00 PM40.8 °F37.8 °F89 %30.25 inSE (130°)1.2 mph
2:00 PM41.7 °F38.1 °F87 %30.23 inESE (110°)2.3 mph
3:00 PM40.8 °F38.7 °F92 %30.23 inESE (110°)1.2 mph
4:00 PM40.0 °F39.0 °F93 %30.22 inEast (100°)3.5 mph
4:00 PM40.5 °F38.7 °F93 %30.22 inEast (100°)3.5 mph0.02 in
5:00 PM40.1 °F38.7 °F95 %30.21 inEast (100°)2.3 mph0.02 in
6:00 PM39.7 °F38.3 °F95 %30.21 inNNE (30°)1.2 mph0.03 in
7:00 PM40.6 °F39.4 °F95 %30.21 inNNE (20°)1.2 mph0.04 in
8:00 PM40.5 °F39.4 °F96 %30.19 inNNE (30°)2.3 mph0.03 in
9:00 PM40.6 °F39.6 °F96 %30.18 inNE (40°)1.2 mph
10:00 PM41.0 °F40.0 °F93 %30.18 inENE (70°)2.3 mph
10:00 PM40.8 °F39.7 °F96 %30.18 inENE (70°)2.3 mph
11:00 PM41.2 °F40.1 °F96 %30.17 inENE (70°)3.5 mph
Hourly data recorded from CWWA, located miles away from Vancouver - City Hall, British Columbia







STORIES FROM OUR PARTNERS